• In Deutschland
  • Länderverzeichnis
  • Für 7 Tage
  • Wassertemperatur
  • Satellitenkarten
  • Wetterkarte
  • Widgets
  • user-avatar
    Anmelden

    Stündliche Wetter Wlora

    Heute, 23 Juni, Freitag

    Zeit Temperatur Niederschläge Wind Luftdruck Luftfeuchtigkeit
    00:00 +23°C° 0 mm 2 m/S 763 mmHg 76%
    01:00 +22°C° 0 mm 1 m/S 762 mmHg 81%
    02:00 +22°C° 0 mm 1 m/S 762 mmHg 80%
    03:00 +22°C° 0 mm 1 m/S 762 mmHg 80%
    04:00 +22°C° 0 mm 1 m/S 762 mmHg 80%
    05:00 +24°C° 0 mm 1 m/S 762 mmHg 70%
    06:00 +27°C° 0 mm 1 m/S 762 mmHg 61%
    07:00 +29°C° 0 mm 1 m/S 762 mmHg 52%
    08:00 +31°C° 0 mm 1 m/S 762 mmHg 47%
    09:00 +32°C° 0 mm 2 m/S 763 mmHg 42%
    10:00 +34°C° 0 mm 2 m/S 763 mmHg 37%
    11:00 +34°C° 0 mm 2 m/S 762 mmHg 35%
    12:00 +35°C° 0 mm 2 m/S 762 mmHg 34%
    13:00 +35°C° 0 mm 3 m/S 762 mmHg 32%
    14:00 +35°C° 0 mm 3 m/S 762 mmHg 33%
    15:00 +34°C° 0 mm 3 m/S 762 mmHg 34%
    16:00 +34°C° 0 mm 3 m/S 761 mmHg 35%
    17:00 +31°C° 0 mm 3 m/S 761 mmHg 42%
    18:00 +29°C° 0 mm 2 m/S 761 mmHg 50%
    19:00 +26°C° 0 mm 2 m/S 761 mmHg 57%
    20:00 +25°C° 0 mm 2 m/S 761 mmHg 59%
    21:00 +24°C° 0 mm 1 m/S 762 mmHg 62%
    22:00 +23°C° 0 mm 1 m/S 762 mmHg 65%
    23:00 +23°C° 0 mm 1 m/S 762 mmHg 65%

    Morgen, 24 Juni, Samstag

    Zeit Temperatur Niederschläge Wind Luftdruck Luftfeuchtigkeit
    00:00 +23°C° 0 mm 1 m/S 762 mmHg 65%
    01:00 +23°C° 0 mm 1 m/S 762 mmHg 65%
    02:00 +23°C° 0 mm 1 m/S 761 mmHg 66%
    03:00 +22°C° 0 mm 1 m/S 761 mmHg 67%
    04:00 +21°C° 0 mm 2 m/S 761 mmHg 68%
    05:00 +25°C° 0 mm 2 m/S 761 mmHg 60%
    06:00 +27°C° 0 mm 2 m/S 761 mmHg 53%
    07:00 +29°C° 0 mm 2 m/S 761 mmHg 45%
    08:00 +31°C° 0 mm 2 m/S 761 mmHg 41%
    09:00 +33°C° 0 mm 3 m/S 761 mmHg 38%
    10:00 +35°C° 0 mm 3 m/S 761 mmHg 34%
    11:00 +35°C° 0 mm 3 m/S 761 mmHg 33%
    12:00 +35°C° 0 mm 4 m/S 761 mmHg 33%
    13:00 +36°C° 0 mm 4 m/S 761 mmHg 32%
    14:00 +35°C° 0 mm 4 m/S 760 mmHg 34%
    15:00 +35°C° 0 mm 4 m/S 760 mmHg 36%
    16:00 +34°C° 0 mm 4 m/S 760 mmHg 39%
    17:00 +31°C° 0 mm 3 m/S 760 mmHg 46%
    18:00 +29°C° 0 mm 3 m/S 760 mmHg 53%
    19:00 +27°C° 0 mm 2 m/S 760 mmHg 60%
    20:00 +26°C° 0 mm 2 m/S 760 mmHg 63%
    21:00 +25°C° 0 mm 1 m/S 761 mmHg 65%
    22:00 +25°C° 0 mm 1 m/S 761 mmHg 68%
    23:00 +24°C° 0 mm 1 m/S 761 mmHg 69%

    übermorgen, 25 Juni, Sonntag

    Zeit Temperatur Niederschläge Wind Luftdruck Luftfeuchtigkeit
    00:00 +24°C° 0 mm 1 m/S 760 mmHg 69%
    01:00 +24°C° 0 mm 1 m/S 760 mmHg 70%
    02:00 +24°C° 0 mm 1 m/S 760 mmHg 70%
    03:00 +23°C° 0 mm 1 m/S 760 mmHg 71%
    04:00 +23°C° 0 mm 1 m/S 760 mmHg 71%
    05:00 +25°C° 0 mm 1 m/S 760 mmHg 64%
    06:00 +28°C° 0 mm 1 m/S 760 mmHg 57%
    07:00 +30°C° 0 mm 1 m/S 760 mmHg 50%
    08:00 +31°C° 0 mm 1 m/S 760 mmHg 46%
    09:00 +33°C° 0 mm 1 m/S 760 mmHg 42%
    10:00 +34°C° 0 mm 1 m/S 760 mmHg 38%
    11:00 +35°C° 0 mm 2 m/S 759 mmHg 37%
    12:00 +36°C° 0 mm 2 m/S 759 mmHg 36%
    13:00 +36°C° 0 mm 3 m/S 759 mmHg 35%
    14:00 +35°C° 0,1 mm 2 m/S 759 mmHg 37%
    15:00 +35°C° 0,1 mm 2 m/S 758 mmHg 39%
    16:00 +34°C° 0,1 mm 2 m/S 758 mmHg 40%
    17:00 +31°C° 0,1 mm 2 m/S 758 mmHg 48%
    18:00 +29°C° 0,1 mm 2 m/S 758 mmHg 56%
    19:00 +27°C° 0,1 mm 2 m/S 758 mmHg 63%
    20:00 +26°C° 0 mm 2 m/S 758 mmHg 63%
    21:00 +26°C° 0 mm 2 m/S 759 mmHg 63%
    22:00 +25°C° 0 mm 2 m/S 759 mmHg 64%
    23:00 +24°C° 0 mm 2 m/S 759 mmHg 65%

    26 Juni, Montag

    Zeit Temperatur Niederschläge Wind Luftdruck Luftfeuchtigkeit
    00:00 +24°C° 0 mm 1 m/S 758 mmHg 67%
    01:00 +23°C° 0 mm 1 m/S 758 mmHg 69%
    02:00 +23°C° 0 mm 1 m/S 758 mmHg 69%
    03:00 +23°C° 0 mm 1 m/S 758 mmHg 70%
    04:00 +23°C° 0 mm 1 m/S 758 mmHg 70%
    05:00 +25°C° 0 mm 1 m/S 758 mmHg 62%
    06:00 +28°C° 0 mm 1 m/S 758 mmHg 54%
    07:00 +30°C° 0 mm 1 m/S 759 mmHg 46%
    08:00 +31°C° 0 mm 1 m/S 759 mmHg 42%
    09:00 +34°C° 0 mm 2 m/S 759 mmHg 38%
    10:00 +35°C° 0 mm 2 m/S 759 mmHg 34%
    11:00 +35°C° 0 mm 2 m/S 759 mmHg 34%
    12:00 +35°C° 0 mm 3 m/S 758 mmHg 34%
    13:00 +36°C° 0 mm 3 m/S 758 mmHg 34%
    14:00 +35°C° 0 mm 3 m/S 758 mmHg 36%
    15:00 +35°C° 0 mm 3 m/S 758 mmHg 38%
    16:00 +34°C° 0 mm 3 m/S 758 mmHg 40%
    17:00 +31°C° 0 mm 2 m/S 758 mmHg 47%
    18:00 +29°C° 0 mm 2 m/S 758 mmHg 54%
    19:00 +27°C° 0 mm 1 m/S 759 mmHg 61%
    20:00 +26°C° 0 mm 1 m/S 759 mmHg 64%
    21:00 +25°C° 0 mm 1 m/S 759 mmHg 66%
    22:00 +24°C° 0 mm 1 m/S 759 mmHg 68%
    23:00 +24°C° 0 mm 1 m/S 759 mmHg 68%

    27 Juni, Dienstag

    Zeit Temperatur Niederschläge Wind Luftdruck Luftfeuchtigkeit
    00:00 +24°C° 0 mm 1 m/S 759 mmHg 68%
    01:00 +24°C° 0 mm 1 m/S 759 mmHg 68%
    02:00 +23°C° 0 mm 1 m/S 759 mmHg 70%
    03:00 +23°C° 0 mm 1 m/S 759 mmHg 71%
    04:00 +23°C° 0 mm 1 m/S 759 mmHg 72%
    05:00 +25°C° 0 mm 1 m/S 760 mmHg 64%
    06:00 +28°C° 0 mm 1 m/S 760 mmHg 57%
    07:00 +30°C° 0 mm 1 m/S 760 mmHg 49%
    08:00 +32°C° 0 mm 1 m/S 760 mmHg 45%
    09:00 +33°C° 0 mm 1 m/S 760 mmHg 41%
    10:00 +35°C° 0 mm 2 m/S 760 mmHg 38%
    11:00 +36°C° 0 mm 2 m/S 760 mmHg 37%
    12:00 +36°C° 0 mm 2 m/S 760 mmHg 36%
    13:00 +36°C° 0 mm 2 m/S 760 mmHg 35%
    14:00 +36°C° 0 mm 2 m/S 759 mmHg 36%
    15:00 +35°C° 0 mm 2 m/S 759 mmHg 37%
    16:00 +35°C° 0 mm 2 m/S 759 mmHg 38%
    17:00 +32°C° 0 mm 2 m/S 759 mmHg 46%
    18:00 +29°C° 0 mm 2 m/S 759 mmHg 55%
    19:00 +27°C° 0 mm 1 m/S 759 mmHg 63%
    20:00 +27°C° 0 mm 2 m/S 760 mmHg 63%
    21:00 +26°C° 0 mm 2 m/S 760 mmHg 63%
    22:00 +25°C° 0 mm 2 m/S 760 mmHg 63%
    23:00 +25°C° 0 mm 2 m/S 760 mmHg 64%

    28 Juni, Mittwoch

    Zeit Temperatur Niederschläge Wind Luftdruck Luftfeuchtigkeit
    00:00 +24°C° 0 mm 2 m/S 760 mmHg 65%
    01:00 +24°C° 0 mm 2 m/S 759 mmHg 66%
    02:00 +24°C° 0 mm 2 m/S 759 mmHg 68%
    03:00 +23°C° 0 mm 1 m/S 759 mmHg 70%
    04:00 +23°C° 0 mm 1 m/S 759 mmHg 72%
    05:00 +26°C° 0 mm 1 m/S 759 mmHg 63%
    06:00 +28°C° 0 mm 2 m/S 759 mmHg 53%
    07:00 +31°C° 0 mm 2 m/S 759 mmHg 44%
    08:00 +32°C° 0 mm 2 m/S 759 mmHg 41%
    09:00 +34°C° 0 mm 3 m/S 759 mmHg 38%
    10:00 +35°C° 0 mm 3 m/S 759 mmHg 34%
    11:00 +36°C° 0 mm 4 m/S 759 mmHg 33%
    12:00 +36°C° 0 mm 4 m/S 759 mmHg 33%
    13:00 +37°C° 0 mm 4 m/S 758 mmHg 32%
    14:00 +36°C° 0 mm 4 m/S 758 mmHg 34%
    15:00 +35°C° 0 mm 4 m/S 758 mmHg 35%
    16:00 +35°C° 0 mm 4 m/S 758 mmHg 37%
    17:00 +33°C° 0 mm 4 m/S 758 mmHg 45%
    18:00 +30°C° 0 mm 4 m/S 758 mmHg 52%
    19:00 +28°C° 0 mm 3 m/S 758 mmHg 60%
    20:00 +27°C° 0 mm 3 m/S 758 mmHg 61%
    21:00 +26°C° 0 mm 3 m/S 758 mmHg 62%
    22:00 +25°C° 0 mm 3 m/S 758 mmHg 63%
    23:00 +25°C° 0 mm 4 m/S 758 mmHg 62%
    Mehr zeigen